[[{"header":{"parameterUnit":"m.s-1","parameterCategory":1,"la1":30.2991,"la2":30.254,"lo1":-89.0895,"lo2":-89.0444,"dy":0.0017,"dx":0.0017,"nx":28,"ny":28,"refTime":"2024-05-12T21:00:00:Z","depth":0,"parameterNumber":2,"parameterNumberName":"U-component_of_WINDS"},"data":[0,0,0,0,0,0,0,0,0,0,0,0,0,0,0,0,0,0,0,0,0,0,0,0,0,0,0,0,0,0,0,0,0,0,0,0,0,0,0,0,0,0,0,0,0,0,0,0,0,0,0,0,0,0,0,0,0,0,0.6754,0.6757,0,0.6999,0.7001,0.7004,0.7063,0.7062,0.706,0.7059,0.7289,0.7297,0.7304,0,0,0,0,0,0,0,0,0,0,0,0,0,0.6321,0.6329,0.6754,0.6757,0.676,0.6998,0.7001,0.7005,0.7063,0.7062,0.706,0.7058,0.7287,0.7296,0.7305,0,0,0,0,0,0,0,0,0,0,0,0,0,0.6531,0.6331,0.6754,0.6819,0.6827,0.6997,0.7002,0.7006,0.7064,0.7061,0.7059,0.7057,0.7284,0.7295,0.7306,0.7423,0,0,0.7341,0.7346,0,0,0,0,0,0,0,0,0.6519,0.6547,0.6806,0.6815,0.6824,0.6999,0.6933,0.7145,0.7064,0.6973,0.7059,0.7056,0.7193,0.7212,0.7262,0.7434,0.7444,0.7342,0.7349,0.7354,0.7357,0,0,0,0,0,0,0,0.6504,0.6536,0.685,0.681,0.6821,0.683,0.6857,0.6974,0.7092,0.6981,0.6986,0.7015,0.7197,0.7251,0.7268,0.7447,0.7341,0.7352,0.7359,0.7363,0.7727,0.773,0,0,0,0,0,0,0.6481,0.6524,0.6842,0.6858,0.6663,0.684,0.687,0.6944,0.7092,0.7112,0.7017,0.7017,0.7233,0.7254,0.7276,0.7424,0.7353,0.7364,0.7371,0.7724,0.7728,0.7731,0,0,0,0,0,0,0.6471,0.6509,0.6833,0.6693,0.6735,0.685,0.6933,0.695,0.7005,0.7119,0.7139,0.7051,0.7232,0.726,0.7388,0.7433,0.7369,0.738,0.7721,0.7725,0.7729,0.772,0,0,0,0,0,0,0.6459,0.6505,0.6555,0.6693,0.6742,0.6945,0.6935,0.6957,0.7026,0.7029,0.7156,0.7175,0.7232,0.737,0.7399,0.7447,0.7389,0.7717,0.7723,0.7728,0.7717,0.7723,0.7729,0,0,0,0,0,0.6443,0.6537,0.6557,0.6595,0.6807,0.6948,0.6975,0.7044,0.703,0.7078,0.7152,0.7171,0.7423,0.7383,0.7416,0.7468,0.7715,0.7721,0.7728,0.7714,0.7722,0.7729,0,0,0,0,0,0,0.6393,0.6557,0.658,0.6723,0.6822,0.6958,0.7021,0.705,0.715,0.7147,0.7223,0.7251,0.7374,0.7433,0.7385,0.7589,0.7568,0.7581,0.7546,0.7555,0.7561,0.7544,0.7398,0,0,0,0,0,0.64,0.6507,0.6641,0.6754,0.6804,0.6904,0.6967,0.7014,0.7116,0.7156,0.7239,0.7332,0.7433,0.7497,0.7596,0.7725,0.7753,0.7777,0.7783,0.7788,0.7798,0.7872,0.7884,0.7752,0.7752,0.7752,0,0,0.6412,0.6515,0.6577,0.6747,0.6829,0.6933,0.6938,0.7047,0.7123,0.717,0.7298,0.7362,0.7471,0.7601,0.7662,0.7654,0.7841,0.7796,0.7799,0.7807,0.7879,0.7892,0.7903,0.7756,0.7755,0.7755,0,0,0.649,0.6579,0.6685,0.6769,0.6896,0.6963,0.6988,0.712,0.7167,0.7298,0.7336,0.7424,0.7596,0.7673,0.7734,0.7844,0.7865,0.7873,0.7905,0.7976,0.7986,0.7996,0.8035,0.8048,0.7883,0.7883,0.7883,0,0.6487,0.6653,0.6733,0.6843,0.6916,0.6971,0.7076,0.7151,0.73,0.7346,0.7337,0.7557,0.7633,0.7782,0.781,0.7857,0.7886,0.7859,0.7979,0.799,0.8,0.8038,0.8052,0.7883,0.7883,0.7883,0.7883,0,0.6644,0.6757,0.6826,0.6979,0.7059,0.7165,0.7257,0.7327,0.7366,0.7432,0.7564,0.7659,0.7779,0.7817,0.7852,0.7971,0.7963,0.7965,0.7946,0.8011,0.8048,0.8064,0.7884,0.7884,0.7884,0.7883,0,0,0.6693,0.6894,0.6918,0.6989,0.7135,0.7221,0.7327,0.7453,0.7512,0.7612,0.7702,0.7848,0.7853,0.7922,0.7967,0.8029,0.8111,0.8024,0.8028,0.8037,0.8246,0.8244,0.826,0.8126,0.8129,0.8131,0.8238,0,0.6788,0.6992,0.7069,0.7231,0.7337,0.7391,0.7484,0.7581,0.7645,0.7739,0.7806,0.791,0.7908,0.7951,0.8015,0.8087,0.8153,0.808,0.8205,0.8209,0.8178,0.828,0.8277,0.8373,0.8252,0.8255,0.8257,0,0.6926,0.7039,0.7215,0.7352,0.7399,0.7482,0.7604,0.7694,0.7803,0.7845,0.7926,0.7968,0.8077,0.8051,0.8201,0.815,0.8205,0.8248,0.8253,0.8268,0.8237,0.8296,0.8405,0.842,0.828,0.8278,0.8277,0,0.6946,0.714,0.7272,0.7331,0.7493,0.755,0.7619,0.7727,0.7798,0.7901,0.7948,0.8059,0.812,0.8203,0.8272,0.8247,0.8415,0.8395,0.845,0.8448,0.8483,0.848,0.8603,0.8518,0.8517,0.8517,0.8517,0,0.7045,0.715,0.7284,0.7365,0.7484,0.7569,0.7682,0.7753,0.7849,0.794,0.7991,0.8074,0.8161,0.8253,0.8307,0.8423,0.8448,0.8483,0.8496,0.8479,0.8475,0.8516,0.8511,0.8521,0.852,0.8519,0.8519,0,0.7086,0.7181,0.7328,0.7473,0.7511,0.7592,0.7713,0.779,0.7859,0.7973,0.8005,0.8109,0.8222,0.83,0.8441,0.8477,0.8602,0.8614,0.8568,0.8575,0.8626,0.862,0.878,0.8805,0.8702,0.8703,0.8704,0,0.7143,0.7227,0.7383,0.7453,0.7525,0.7633,0.7709,0.7795,0.787,0.8003,0.8063,0.8181,0.828,0.8455,0.8539,0.8648,0.8662,0.8711,0.8678,0.866,0.8664,0.8658,0.8667,0.8715,0.8716,0.8717,0.8717,0,0.7233,0.7278,0.7389,0.7518,0.7609,0.7711,0.7813,0.7865,0.7968,0.8048,0.8169,0.8246,0.8395,0.851,0.8627,0.869,0.872,0.8727,0.8746,0.8729,0.87,0.8718,0.8582,0.8723,0.8722,0.8722,0.8721,0.8721,0.7285,0.7364,0.7488,0.761,0.7699,0.7795,0.7877,0.7959,0.8063,0.8197,0.8239,0.8363,0.8469,0.8632,0.8697,0.8791,0.8787,0.8814,0.8821,0.8826,0.8826,0.8686,0.8812,0.8812,0.8812,0.8812,0.8812,0,0.7379,0.7464,0.7576,0.7724,0.7819,0.7847,0.7963,0.8038,0.815,0.8251,0.835,0.8487,0.86,0.8695,0.881,0.8867,0.8883,0.8894,0.8891,0.8905,0.8823,0.8796,0.8879,0.8879,0.8879,0.8879,0.8879,0.8879,0.744,0.7576,0.7635,0.7813,0.7895,0.8025,0.8089,0.8176,0.8257,0.8412,0.851,0.8574,0.8671,0.8795,0.8897,0.8922,0.8961,0.8969,0.8996,0.8918,0.891,0.8903,0.8878,0.8977,0.8977,0.9071,0.9072,0.9072]},{"header":{"parameterUnit":"m.s-1","parameterCategory":1,"la1":30.2991,"la2":30.254,"lo1":-89.0895,"lo2":-89.0444,"dy":0.0017,"dx":0.0017,"nx":28,"ny":28,"refTime":"2024-05-12T21:00:00:Z","depth":0,"parameterNumber":3,"parameterNumberName":"V-component_of_WINDS"},"data":[0,0,0,0,0,0,0,0,0,0,0,0,0,0,0,0,0,0,0,0,0,0,0,0,0,0,0,0,0,0,0,0,0,0,0,0,0,0,0,0,0,0,0,0,0,0,0,0,0,0,0,0,0,0,0,0,0,0,5.7424,5.742,0,5.6981,5.6976,5.697,5.6853,5.6856,5.6859,5.6862,5.6378,5.6363,5.6348,0,0,0,0,0,0,0,0,0,0,0,0,0,5.8141,5.8129,5.7425,5.7419,5.7414,5.6982,5.6975,5.6969,5.6853,5.6856,5.686,5.6863,5.6383,5.6365,5.6346,0,0,0,0,0,0,0,0,0,0,0,0,0,5.7776,5.8124,5.7426,5.7304,5.7289,5.6983,5.6975,5.6967,5.6852,5.6856,5.6861,5.6864,5.6389,5.6367,5.6344,5.6118,0,0,5.6273,5.6263,0,0,0,0,0,0,0,0,5.7797,5.775,5.7328,5.7312,5.7295,5.6977,5.705,5.6682,5.6851,5.7017,5.6862,5.6866,5.6572,5.6534,5.6441,5.6095,5.6074,5.6271,5.6257,5.6247,5.6241,0,0,0,0,0,0,0,5.7822,5.7768,5.7248,5.7321,5.7301,5.7262,5.7215,5.698,5.6776,5.7003,5.6994,5.6944,5.6564,5.6464,5.6429,5.6067,5.6272,5.6251,5.6237,5.6228,5.5502,5.5497,0,0,0,0,0,0,5.7873,5.779,5.7262,5.7235,5.7562,5.7246,5.7193,5.7074,5.6778,5.6738,5.6941,5.694,5.6501,5.6456,5.6411,5.6118,5.6247,5.6226,5.6212,5.5507,5.5501,5.5495,0,0,0,0,0,0,5.7889,5.7827,5.728,5.751,5.7437,5.7229,5.7097,5.7063,5.6963,5.6732,5.6692,5.6878,5.6503,5.6444,5.6191,5.61,5.6215,5.6194,5.5513,5.5505,5.5498,5.5537,0,0,0,0,0,0,5.791,5.7834,5.7753,5.7509,5.7426,5.7077,5.7092,5.7052,5.6927,5.6922,5.6662,5.6623,5.6501,5.6226,5.6168,5.607,5.6176,5.552,5.551,5.55,5.5542,5.5531,5.5521,0,0,0,0,0,5.7936,5.7777,5.7749,5.7686,5.7322,5.7072,5.7023,5.6895,5.6921,5.6831,5.6682,5.6631,5.6123,5.6202,5.6135,5.6029,5.5525,5.5513,5.5501,5.5547,5.5533,5.5521,0,0,0,0,0,0,5.8006,5.7743,5.7709,5.747,5.7295,5.7053,5.6937,5.6886,5.6692,5.6694,5.6535,5.6477,5.6232,5.6106,5.62,5.5789,5.5822,5.5796,5.588,5.5864,5.5854,5.5884,5.6157,0,0,0,0,0,5.7996,5.7825,5.76,5.7409,5.7325,5.7147,5.7033,5.695,5.6759,5.6681,5.6513,5.6322,5.6117,5.5985,5.5785,5.5527,5.546,5.542,5.541,5.5402,5.5377,5.522,5.5195,5.5455,5.5455,5.5455,0,0,5.7967,5.7803,5.7703,5.7419,5.7274,5.7089,5.7085,5.6891,5.6748,5.6649,5.64,5.627,5.6044,5.5786,5.5663,5.5672,5.5293,5.5387,5.5382,5.5361,5.5205,5.518,5.5158,5.5447,5.5448,5.545,0,0,5.7821,5.7685,5.7507,5.7363,5.7147,5.703,5.6988,5.6753,5.6665,5.6416,5.6334,5.6158,5.5814,5.5653,5.5526,5.5318,5.5258,5.5257,5.5197,5.5046,5.5025,5.5006,5.4919,5.4892,5.5236,5.5236,5.5236,0,5.781,5.7539,5.7419,5.7229,5.7101,5.7013,5.6824,5.6687,5.6413,5.6321,5.634,5.5901,5.5743,5.5441,5.539,5.5295,5.523,5.5281,5.504,5.5019,5.4999,5.4914,5.4884,5.5237,5.5237,5.5237,5.5236,0,5.753,5.7343,5.7223,5.6969,5.6829,5.664,5.6482,5.6352,5.6282,5.6159,5.5899,5.5709,5.5464,5.5389,5.5315,5.5072,5.5083,5.5074,5.5101,5.4977,5.4894,5.4862,5.5237,5.5237,5.5237,5.5237,0,0,5.7409,5.7094,5.7051,5.6931,5.6686,5.6532,5.6336,5.6106,5.5992,5.5806,5.5627,5.5338,5.5326,5.5182,5.509,5.4959,5.4791,5.4961,5.4953,5.4926,5.4497,5.4499,5.4464,5.4756,5.475,5.4745,5.4512,0,5.7223,5.6878,5.6764,5.6472,5.629,5.6203,5.603,5.5854,5.5735,5.5554,5.5418,5.5211,5.5217,5.5128,5.4996,5.4841,5.4701,5.4857,5.4574,5.4566,5.4623,5.4423,5.4424,5.4214,5.4481,5.4475,5.4471,0,5.6959,5.6776,5.6469,5.6241,5.616,5.6008,5.5783,5.5618,5.5413,5.5334,5.5175,5.5092,5.487,5.4921,5.4605,5.4714,5.4592,5.4498,5.4487,5.4445,5.4503,5.4364,5.4146,5.411,5.4422,5.4426,5.4429,0,5.6887,5.6564,5.6336,5.6238,5.597,5.5862,5.5744,5.5545,5.5412,5.5214,5.5123,5.49,5.4774,5.4597,5.4451,5.4504,5.4145,5.4186,5.4061,5.4064,5.398,5.3985,5.3726,5.3923,5.3923,5.3924,5.3924,0,5.6685,5.6496,5.63,5.6158,5.5941,5.5809,5.5594,5.5469,5.5292,5.5115,5.5027,5.4861,5.4686,5.4493,5.4378,5.4127,5.4074,5.3994,5.3963,5.3995,5.4003,5.3903,5.3909,5.3915,5.3917,5.3919,5.392,0,5.6563,5.6427,5.617,5.594,5.5877,5.5726,5.5522,5.5374,5.5255,5.5031,5.497,5.4775,5.4544,5.4386,5.4087,5.4009,5.3734,5.3712,5.3805,5.3787,5.3667,5.3675,5.3325,5.3266,5.3515,5.3513,5.3511,0,5.6438,5.6292,5.6047,5.5928,5.5811,5.5619,5.5484,5.5347,5.5208,5.4962,5.4841,5.4607,5.441,5.4043,5.3867,5.3636,5.3598,5.3492,5.3562,5.3596,5.358,5.3586,5.3564,5.3477,5.3475,5.3473,5.3472,0,5.6225,5.6164,5.5979,5.5767,5.5611,5.5436,5.5259,5.5163,5.4992,5.4839,5.4606,5.4455,5.4153,5.3915,5.3667,5.3532,5.3466,5.3454,5.341,5.3434,5.3489,5.3445,5.3762,5.3459,5.346,5.3461,5.3462,5.3463,5.6087,5.5951,5.5757,5.555,5.5405,5.5241,5.509,5.4952,5.4759,5.4507,5.4437,5.4191,5.3981,5.3643,5.3505,5.3302,5.3309,5.325,5.3232,5.3216,5.3209,5.3534,5.3258,5.3258,5.3258,5.3259,5.3259,0,5.5859,5.5731,5.5544,5.5302,5.5137,5.5107,5.4908,5.4767,5.4555,5.4371,5.4182,5.3908,5.3677,5.3486,5.3244,5.3117,5.308,5.3057,5.3057,5.3024,5.3223,5.3279,5.309,5.309,5.309,5.309,5.309,5.309,5.572,5.5483,5.5399,5.5085,5.4955,5.4721,5.4608,5.4452,5.4303,5.4006,5.3817,5.3698,5.3505,5.3249,5.3031,5.298,5.2888,5.2868,5.2808,5.2994,5.3012,5.303,5.3081,5.2853,5.2853,5.2624,5.2622,5.2621]}]]